Voltar ao catálogo

ORBCOMM FM 5 DEB

AtivoLEO
NORAD 51092·DEBRIS·🇺🇸 United States

Lançado Dec 23, 1997 de Cape Canaveral Space Force Station

Loading…

Próximas Passagens (próximas 24 horas)

TLE

ObsoletoSource: Space-Track

Época: Sep 1, 2026, 03:01 UTC

1 51092U 97084W   26244.12578800  .00000291  00000-0  14948-3 0  9995
2 51092  45.0223 182.6404 0038369  14.5012 345.6928 14.34959255235950

Acompanhe ORBCOMM FM 5 DEB em tempo real com AllMySat

Download on the App Store